SCP
0 0 0 0 0 0 0 0 0 0 0 0 0 0 0 0 0 0 0 0 0 0 0 0 0 0 0 0 0 0 0 0 0 0 0 0 0 0 0 0 0 0 0 0
0 0 0 0 0 0 0 0 0 0 0 0 0 0 0 0 0 0 0 0 0 0 0 0 0 0 0 0 0 0 0 0 0 0 0 0 0 0 0 0 0 0 0 0
0 0 0 0 0 0 0 0 0 0 0 0 0 0 0 0 0 0 0 0 0 0 0 0 0 0 0 0 0 0 0 0 0 0 0 0 0 0 0 0 0 0 0 0
0 0 0 0 0 0 0 0 0 0 0 0 0 0 0 0 0 0 0 0 0 0 0 0 0 0 0 0 0 0 0 0 0 0 0 0 0 0 0 0 0 0 0 0
0 0 0 0 0 0 0 0 0 0 0 0 0 0 0 0 0 0 0 0 0 0 0 0 0 0 0 0 0 0 0 0 0 0 0 0 0 0 0 0 0 0 0 0
0 0 -0 0 0 0 0 0 0 0 -0 0 0 0 0 0 0 0 0 0 0 0 0 0 -0 0 0 0 0 0 0 0 0 0 0 0 0 0 0 0 0 0 0 0
0 0 -0 0 -0 -0 0 -0 0 -0 0 0 0 0 0 0 0 0 0 0 0 0 0 0 0 0 0 0 0 0 0 0 0 0 0 0 0 0 0 0 0 0 0 0
0 0 0 -0 -0 0 -0 -0 -0 -0 -0 0 0 0 0 0 0 0 0 0 0 0 0 0 0 0 0 0 0 0 -0 0 0 0 0 0 0 0 0 0 0 0 0 0
0 0 0 0 0 0 0 0 0 0 0 0 0 0 0 0 0 0 0 0 0 0 0 0 0 0 0 0 0 0 0 0 0 0 0 0 0 0 0 0 0 0 0 0
0 0 0 0 0 0 0 0 0 0 0 0 0 0 0 0 0 0 0 0 0 0 0 0 0 0 0 0 0 0 0 0 0 0 0 0 0 0 0 0 0 0 0 0
0 0 0 0 0 0 0 0 0 0 0 0 0 0 0 0 0 0 0 0 0 0 0 0 0 0 0 0 0 0 0 0 0 0 0 0 0 0 0 0 0 0 0 0
0 0 0 0 0 0 0 0 0 0 0 0 0 0 0 0 0 0 0 0 0 0 0 0 0 0 0 0 0 0 0 0 0 0 0 0 0 0 0 0 0 0 0 0
0 0 0 0 0 0 0 0 0 0 0 0 0 0 0 0 0 0 0 0 0 0 0 0 0 0 0 0 0 0 0 0 0 0 0 0 0 0 -0 0 0 0 0 0
0 0 0 0 0 0 0 0 0 0 0 0 0 0 0 0 0 0 0 0 0 0 0 0 0 0 0 0 0 0 0 0 0 0 0 0 0 0 0 0 0 0 0 0
0 0 0 0 0 0 0 0 0 0 0 0 0 0 0 0 0 0 0 0 0 0 0 0 0 0 0 0 0 0 0 0 0 0 0 0 0 0 0 0 0 0 0 0
0 0 0 0 0 0 0 0 0 0 0 0 0 0 0 0 0 0 0 0 0 0 0 0 0 0 0 0 0 0 0 0 0 0 0 0 0 0 0 0 0 0 0 0
0 0 0 0 0 0 0 0 0 0 0 0 0 0 0 0 0 0 0 0 0 0 0 0 0 0 0 0 0 0 0 0 0 0 0 0 0 0 0 0 0 0 0 0
0 0 0 0 0 0 0 0 0 0 0 0 0 0 0 0 0 0 0 0 0 0 0 0 0 0 0 0 0 0 0 0 0 0 0 0 0 0 0 0 0 0 0 0
0 0 0 0 0 0 0 0 0 0 0 0 0 0 0 0 0 0 0 0 0 0 0 0 0 0 0 0 0 0 0 0 0 0 0 0 0 0 0 0 0 0 0 0
0 0 0 0 0 0 0 0 0 0 0 0 0 0 0 0 0 0 0 0 0 0 0 0 0 0 0 0 0 0 0 0 0 0 0 0 0 0 0 0 0 0 0 0
0 0 0 0 0 0 0 0 0 0 0 0 0 0 0 0 0 0 0 0 0 0 0 0 0 0 0 0 0 0 0 0 0 0 0 0 0 0 0 0 0 0 -0 -0
-0 -0 0 0 0 0 0 0 0 0 0 0 0 0 0 0 0 0 0 0 0 0 0 0 0 0 0 0 0 0 0 0 0 0 0 0 0 0 0 0 0 0 0 0
-0 -0 0 0 0 0 0 0 0 0 0 0 0 0 0 0 0 0 0 0 0 0 0 0 0 0 0 0 0 0 0 0 0 0 0 0 0 0 0 0 0 0 0 0
0 0 0 0 0 0 0 0 0 0 0 0 0 0 0 0 0 0 0 0 0 0 0 0 0 0 0 0 0 0 0 0 0 0 0 0 0 0 0 0 0 0 0 0
0 0 0 0 0 0 0 0 0 0 0 0 0 0 0 0 0 0 0 0 0 0 0 0 0 0 0 0 0 0 0 0 0 0 0 0 0 0 0 0 0 0 0 0
0 0 0 0 0 0 0 0 0 0 0 0 0 0 0 0 0 0 0 0 0 0 0 0 0 0 0 0 0 0 0 0 0 0 0 0 0 0 0 0 0 0 0 0
0 0 0 0 0 0 0 0 0 0 0 0 0 0 0 0 0 0 0 0 0 0 0 0 0 0 0 0 0 0 0 0 0 0 0 0 0 0 0 0 0 0 0 0
Wind_Speed_500mb
12 14 8 10 19 11 15 13 10 11 14 17 15 21 39 46 41 42 45 44 44 44 41 38 36 36 35 32 28 28 31 29 27 27 31 26 28 33 37 33 32 37 39 40
7 9 5 9 14 13 20 17 13 14 15 10 10 27 34 44 46 47 46 49 47 40 36 38 35 32 30 28 27 28 30 30 28 31 30 31 31 32 39 36 34 36 39 43
9 10 12 9 7 8 9 12 9 5 6 5 6 8 15 28 34 39 45 48 43 37 31 27 33 30 28 24 23 28 30 31 30 33 36 35 35 33 38 37 36 35 38 42
5 12 3 9 6 6 4 6 24 10 12 5 11 22 12 3 13 30 33 29 21 19 19 24 27 26 23 22 25 29 35 37 35 35 41 38 39 35 37 38 39 36 38 42
3 3 8 10 9 9 8 10 21 9 16 16 17 23 17 24 28 19 16 12 9 11 10 15 20 17 19 25 28 32 37 39 37 35 39 40 43 39 37 41 40 37 38 44
4 4 4 9 1 7 2 13 27 29 9 10 21 10 9 39 20 3 6 9 10 7 8 10 7 15 24 30 37 41 38 33 35 40 46 48 48 45 41 42 42 41 38 43
2 3 10 9 9 5 7 10 19 15 14 20 8 6 14 13 7 12 16 18 16 18 20 21 28 28 37 42 47 46 49 40 42 45 50 52 51 50 47 44 43 44 42 42
3 0 1 13 8 8 8 10 4 7 6 4 4 4 6 5 10 16 21 25 28 31 35 36 45 47 51 59 67 69 78 72 70 59 57 56 55 52 51 48 46 45 45 43
11 8 5 12 17 18 4 7 10 9 4 3 4 11 17 21 25 30 31 34 36 33 45 49 53 56 55 51 48 51 54 76 67 53 67 64 63 58 53 51 51 49 45 45
7 5 11 10 18 16 13 17 15 13 10 11 18 24 24 24 28 23 24 24 19 30 37 26 25 29 31 33 28 35 44 47 41 44 60 60 59 66 66 58 56 52 48 46
6 1 7 32 25 27 31 30 29 27 25 23 21 25 25 26 26 18 13 10 9 12 14 14 18 21 23 23 26 28 30 33 33 37 43 48 50 55 62 66 67 66 60 52
6 5 10 11 12 13 10 22 20 17 23 26 24 23 21 25 19 19 20 20 21 20 21 26 26 30 35 36 39 39 41 43 46 44 43 44 45 49 51 59 65 65 64 63
9 11 12 28 23 18 22 24 21 20 20 17 20 18 19 20 24 27 27 31 33 33 32 33 36 40 43 47 50 52 52 51 49 46 46 47 47 47 55 53 53 68 63 60
13 13 17 10 19 18 19 22 20 22 23 22 21 19 20 23 24 29 33 33 31 35 38 42 46 50 54 58 59 58 57 53 52 53 50 51 51 49 49 49 49 54 56 59
11 23 28 31 24 19 16 15 14 19 20 22 22 20 23 25 26 27 27 30 34 39 44 47 49 54 59 61 60 56 53 51 51 50 49 50 51 53 54 57 55 55 49 50
39 39 36 27 23 20 17 21 21 24 23 22 22 23 24 23 23 25 31 38 48 53 53 48 46 52 57 57 54 51 51 49 48 51 52 54 55 57 59 59 61 60 61 56
48 35 27 24 19 18 19 19 20 21 20 22 24 23 23 24 24 28 34 40 45 45 48 45 47 50 52 51 51 52 52 53 54 56 57 59 60 60 60 59 61 64 67 70
24 24 22 17 15 13 14 15 16 17 19 18 20 22 24 21 21 27 34 35 39 43 48 49 44 47 50 53 54 53 54 55 54 57 59 62 62 62 63 66 75 82 78 72
24 22 17 12 14 14 11 14 16 15 14 18 24 25 17 9 20 30 34 34 40 45 50 53 51 49 49 47 48 52 54 58 56 55 57 61 68 63 63 65 67 79 88 96
25 20 14 14 15 14 11 4 4 10 16 24 27 13 7 17 27 29 31 35 36 39 46 55 57 54 53 54 52 55 53 54 59 59 60 64 67 64 64 67 71 78 91 95
21 19 16 14 16 18 14 11 9 13 20 24 24 20 21 22 27 28 35 38 41 42 43 53 63 63 53 56 56 57 55 55 58 59 62 67 73 77 70 73 80 87 91 92
18 11 11 12 14 17 14 10 8 13 18 16 20 25 29 33 37 33 33 43 44 44 46 54 63 70 57 54 57 54 55 55 56 58 61 65 73 81 72 82 88 92 103 105
17 13 7 11 14 16 12 11 12 16 20 23 23 26 33 43 47 49 45 41 41 46 53 57 64 73 59 55 56 53 55 56 58 58 60 64 72 78 75 87 94 100 109 112
9 4 6 9 12 11 13 17 16 21 25 29 28 30 40 53 53 37 35 44 46 49 56 58 67 69 57 55 55 55 56 55 58 59 61 63 70 76 78 90 96 105 121 124
2 2 3 6 10 13 16 20 24 25 26 28 31 39 47 49 46 48 44 48 55 62 56 53 66 63 57 54 53 54 55 55 57 59 60 62 68 75 76 88 96 107 124 127
5 3 8 12 12 15 20 25 27 25 30 36 44 47 52 43 46 50 52 51 54 56 54 59 60 57 54 53 55 56 56 58 57 57 58 61 64 71 74 85 93 106 116 121
3 9 15 18 16 19 22 26 24 29 38 45 49 50 49 48 46 50 49 51 51 53 58 58 56 55 55 56 57 57 57 57 55 56 57 59 59 65 68 78 83 94 102 103
Wind_Direction_500mb
277 266 237 246 267 243 200 224 189 242 214 260 228 206 194 193 197 204 207 211 218 223 229 236 242 243 238 239 261 280 282 296 284 279 298 307 320 327 329 332 332 337 335 336
294 331 1 281 279 300 244 248 253 269 277 267 295 185 176 191 201 211 215 222 227 233 239 250 251 247 243 260 280 279 283 294 289 275 290 301 312 318 329 329 326 330 332 332
274 344 327 306 342 315 309 31 306 248 312 337 84 133 181 202 210 221 229 233 238 246 249 251 248 250 262 289 282 283 289 294 299 283 289 299 300 309 326 325 323 325 329 331
286 343 43 281 309 35 292 47 11 344 18 1 115 91 59 314 282 256 253 246 232 232 245 243 248 259 287 289 287 290 290 293 294 295 291 296 299 301 316 316 321 316 321 326
48 340 296 353 3 19 15 349 0 355 23 15 65 67 26 352 336 299 264 216 241 252 257 274 277 288 279 285 291 293 299 298 299 299 294 295 296 302 303 313 310 312 313 320
349 39 328 246 232 303 338 0 350 5 111 31 22 26 307 335 314 142 200 259 285 269 305 331 310 275 286 300 293 292 300 304 300 293 292 295 296 300 294 306 305 305 307 317
137 258 294 304 311 300 69 230 255 269 311 339 14 304 338 345 285 287 284 292 278 272 297 317 315 291 285 293 296 310 302 298 294 294 292 294 296 292 291 297 298 302 301 311
101 156 343 4 337 29 286 356 31 78 88 74 69 13 345 308 290 297 302 293 273 266 282 297 294 292 295 295 298 304 304 307 295 292 292 292 290 291 290 288 292 296 296 303
180 226 243 324 243 331 18 46 53 18 20 326 322 323 311 302 297 292 292 283 270 294 308 297 303 300 295 312 309 299 290 301 297 289 290 290 289 289 290 285 286 291 291 296
11 26 329 55 96 86 51 42 30 37 33 25 6 2 359 350 339 326 317 325 298 287 301 320 328 319 304 304 298 289 292 303 311 302 293 292 283 287 285 287 283 285 287 287
257 347 75 87 72 82 78 81 76 70 53 37 11 34 30 29 35 44 58 48 3 8 16 0 333 330 331 333 326 319 316 323 324 318 318 307 295 283 283 285 283 284 285 284
195 264 150 62 54 65 91 83 74 66 72 65 56 55 50 59 49 41 37 36 35 31 19 11 358 351 350 350 350 343 336 331 329 324 319 321 316 303 287 281 278 278 279 278
147 119 89 105 97 94 104 95 87 75 69 58 54 53 43 52 36 25 17 17 15 10 7 1 356 353 351 349 346 345 343 337 330 331 330 327 319 321 318 300 288 282 275 270
195 157 141 170 110 115 107 98 84 72 60 54 46 40 43 42 23 16 19 20 13 5 357 354 351 349 348 344 341 340 339 338 333 330 326 322 321 319 318 310 318 305 296 283
175 201 163 148 146 125 106 94 74 59 47 37 34 34 21 20 23 29 23 16 10 4 1 356 350 348 348 346 345 346 345 345 344 340 338 338 330 322 316 311 309 302 304 302
142 143 142 143 120 99 74 54 40 40 31 37 33 28 24 21 24 22 16 10 6 5 1 359 356 355 353 354 355 357 358 357 352 351 350 346 345 343 337 332 327 321 310 298
143 127 133 119 104 80 54 39 33 34 34 30 28 22 16 15 15 18 14 11 8 7 8 5 360 356 360 357 356 356 354 352 354 354 353 351 349 346 344 340 334 325 317 313
131 119 113 104 91 67 52 39 31 28 24 22 17 6 1 1 18 16 11 10 10 14 12 9 355 349 346 351 356 355 351 346 345 348 347 347 345 345 346 345 346 342 333 325
105 88 66 62 69 52 46 38 24 16 16 10 3 2 358 3 8 4 6 5 5 5 6 2 355 350 343 338 336 339 341 344 343 342 344 342 342 337 333 331 329 334 333 330
93 67 64 59 47 41 37 26 47 24 17 4 3 357 11 348 351 347 347 351 351 350 352 354 351 343 339 341 337 334 332 335 341 343 344 343 341 334 325 320 319 319 322 320
70 86 76 48 50 43 38 27 26 4 4 11 18 6 327 310 324 323 325 323 335 334 331 338 344 341 329 333 333 334 333 331 335 338 339 340 341 337 326 321 318 318 316 311
88 74 73 57 32 22 21 7 355 343 343 355 2 358 345 336 325 303 317 321 322 324 320 325 333 338 331 326 327 326 333 331 330 333 333 335 338 336 330 327 319 318 316 313
117 120 72 34 24 18 10 358 0 352 339 327 337 341 340 342 327 324 313 319 317 316 316 315 323 331 326 324 325 324 327 332 333 332 332 332 335 334 332 326 322 319 318 316
115 76 15 16 23 0 343 340 323 335 337 332 309 324 331 333 329 325 321 321 321 319 314 309 318 326 323 322 323 325 327 329 331 332 331 332 333 334 335 331 326 328 333 324
94 320 330 346 339 338 337 333 312 319 324 324 323 319 324 324 320 322 320 317 315 317 317 312 318 324 325 324 324 326 329 328 328 328 328 328 331 333 334 336 332 344 342 334
179 291 308 308 307 319 324 326 320 312 321 323 324 322 325 321 316 318 316 314 314 318 317 319 321 324 326 326 326 328 328 327 328 328 327 325 327 332 334 336 344 348 354 352
295 297 303 300 285 303 313 320 315 323 326 326 321 321 324 322 319 321 322 320 321 321 323 323 325 327 328 329 329 329 329 330 331 330 328 328 325 329 334 336 345 347 354 3
Wind_Speed_850mb
12 14 8 10 19 11 15 13 10 11 14 17 15 21 39 46 41 42 45 44 44 44 41 38 36 36 35 32 28 28 31 29 27 27 31 26 28 33 37 33 32 37 39 40
7 9 5 9 14 13 20 17 13 14 15 10 10 27 34 44 46 47 46 49 47 40 36 38 35 32 30 28 27 28 30 30 28 31 30 31 31 32 39 36 34 36 39 43
9 10 12 9 7 8 9 12 9 5 6 5 6 8 15 28 34 39 45 48 43 37 31 27 33 30 28 24 23 28 30 31 30 33 36 35 35 33 38 37 36 35 38 42
5 12 3 9 6 6 4 6 24 10 12 5 11 22 12 3 13 30 33 29 21 19 19 24 27 26 23 22 25 29 35 37 35 35 41 38 39 35 37 38 39 36 38 42
3 3 8 10 9 9 8 10 21 9 16 16 17 23 17 24 28 19 16 12 9 11 10 15 20 17 19 25 28 32 37 39 37 35 39 40 43 39 37 41 40 37 38 44
4 4 4 9 1 7 2 13 27 29 9 10 21 10 9 39 20 3 6 9 10 7 8 10 7 15 24 30 37 41 38 33 35 40 46 48 48 45 41 42 42 41 38 43
2 3 10 9 9 5 7 10 19 15 14 20 8 6 14 13 7 12 16 18 16 18 20 21 28 28 37 42 47 46 49 40 42 45 50 52 51 50 47 44 43 44 42 42
3 0 1 13 8 8 8 10 4 7 6 4 4 4 6 5 10 16 21 25 28 31 35 36 45 47 51 59 67 69 78 72 70 59 57 56 55 52 51 48 46 45 45 43
11 8 5 12 17 18 4 7 10 9 4 3 4 11 17 21 25 30 31 34 36 33 45 49 53 56 55 51 48 51 54 76 67 53 67 64 63 58 53 51 51 49 45 45
7 5 11 10 18 16 13 17 15 13 10 11 18 24 24 24 28 23 24 24 19 30 37 26 25 29 31 33 28 35 44 47 41 44 60 60 59 66 66 58 56 52 48 46
6 1 7 32 25 27 31 30 29 27 25 23 21 25 25 26 26 18 13 10 9 12 14 14 18 21 23 23 26 28 30 33 33 37 43 48 50 55 62 66 67 66 60 52
6 5 10 11 12 13 10 22 20 17 23 26 24 23 21 25 19 19 20 20 21 20 21 26 26 30 35 36 39 39 41 43 46 44 43 44 45 49 51 59 65 65 64 63
9 11 12 28 23 18 22 24 21 20 20 17 20 18 19 20 24 27 27 31 33 33 32 33 36 40 43 47 50 52 52 51 49 46 46 47 47 47 55 53 53 68 63 60
13 13 17 10 19 18 19 22 20 22 23 22 21 19 20 23 24 29 33 33 31 35 38 42 46 50 54 58 59 58 57 53 52 53 50 51 51 49 49 49 49 54 56 59
11 23 28 31 24 19 16 15 14 19 20 22 22 20 23 25 26 27 27 30 34 39 44 47 49 54 59 61 60 56 53 51 51 50 49 50 51 53 54 57 55 55 49 50
39 39 36 27 23 20 17 21 21 24 23 22 22 23 24 23 23 25 31 38 48 53 53 48 46 52 57 57 54 51 51 49 48 51 52 54 55 57 59 59 61 60 61 56
48 35 27 24 19 18 19 19 20 21 20 22 24 23 23 24 24 28 34 40 45 45 48 45 47 50 52 51 51 52 52 53 54 56 57 59 60 60 60 59 61 64 67 70
24 24 22 17 15 13 14 15 16 17 19 18 20 22 24 21 21 27 34 35 39 43 48 49 44 47 50 53 54 53 54 55 54 57 59 62 62 62 63 66 75 82 78 72
24 22 17 12 14 14 11 14 16 15 14 18 24 25 17 9 20 30 34 34 40 45 50 53 51 49 49 47 48 52 54 58 56 55 57 61 68 63 63 65 67 79 88 96
25 20 14 14 15 14 11 4 4 10 16 24 27 13 7 17 27 29 31 35 36 39 46 55 57 54 53 54 52 55 53 54 59 59 60 64 67 64 64 67 71 78 91 95
21 19 16 14 16 18 14 11 9 13 20 24 24 20 21 22 27 28 35 38 41 42 43 53 63 63 53 56 56 57 55 55 58 59 62 67 73 77 70 73 80 87 91 92
18 11 11 12 14 17 14 10 8 13 18 16 20 25 29 33 37 33 33 43 44 44 46 54 63 70 57 54 57 54 55 55 56 58 61 65 73 81 72 82 88 92 103 105
17 13 7 11 14 16 12 11 12 16 20 23 23 26 33 43 47 49 45 41 41 46 53 57 64 73 59 55 56 53 55 56 58 58 60 64 72 78 75 87 94 100 109 112
9 4 6 9 12 11 13 17 16 21 25 29 28 30 40 53 53 37 35 44 46 49 56 58 67 69 57 55 55 55 56 55 58 59 61 63 70 76 78 90 96 105 121 124
2 2 3 6 10 13 16 20 24 25 26 28 31 39 47 49 46 48 44 48 55 62 56 53 66 63 57 54 53 54 55 55 57 59 60 62 68 75 76 88 96 107 124 127
5 3 8 12 12 15 20 25 27 25 30 36 44 47 52 43 46 50 52 51 54 56 54 59 60 57 54 53 55 56 56 58 57 57 58 61 64 71 74 85 93 106 116 121
3 9 15 18 16 19 22 26 24 29 38 45 49 50 49 48 46 50 49 51 51 53 58 58 56 55 55 56 57 57 57 57 55 56 57 59 59 65 68 78 83 94 102 103
Wind_Direction_850mb
277 266 237 246 267 243 200 224 189 242 214 260 228 206 194 193 197 204 207 211 218 223 229 236 242 243 238 239 261 280 282 296 284 279 298 307 320 327 329 332 332 337 335 336
294 331 1 281 279 300 244 248 253 269 277 267 295 185 176 191 201 211 215 222 227 233 239 250 251 247 243 260 280 279 283 294 289 275 290 301 312 318 329 329 326 330 332 332
274 344 327 306 342 315 309 31 306 248 312 337 84 133 181 202 210 221 229 233 238 246 249 251 248 250 262 289 282 283 289 294 299 283 289 299 300 309 326 325 323 325 329 331
286 343 43 281 309 35 292 47 11 344 18 1 115 91 59 314 282 256 253 246 232 232 245 243 248 259 287 289 287 290 290 293 294 295 291 296 299 301 316 316 321 316 321 326
48 340 296 353 3 19 15 349 0 355 23 15 65 67 26 352 336 299 264 216 241 252 257 274 277 288 279 285 291 293 299 298 299 299 294 295 296 302 303 313 310 312 313 320
349 39 328 246 232 303 338 0 350 5 111 31 22 26 307 335 314 142 200 259 285 269 305 331 310 275 286 300 293 292 300 304 300 293 292 295 296 300 294 306 305 305 307 317
137 258 294 304 311 300 69 230 255 269 311 339 14 304 338 345 285 287 284 292 278 272 297 317 315 291 285 293 296 310 302 298 294 294 292 294 296 292 291 297 298 302 301 311
101 156 343 4 337 29 286 356 31 78 88 74 69 13 345 308 290 297 302 293 273 266 282 297 294 292 295 295 298 304 304 307 295 292 292 292 290 291 290 288 292 296 296 303
180 226 243 324 243 331 18 46 53 18 20 326 322 323 311 302 297 292 292 283 270 294 308 297 303 300 295 312 309 299 290 301 297 289 290 290 289 289 290 285 286 291 291 296
11 26 329 55 96 86 51 42 30 37 33 25 6 2 359 350 339 326 317 325 298 287 301 320 328 319 304 304 298 289 292 303 311 302 293 292 283 287 285 287 283 285 287 287
257 347 75 87 72 82 78 81 76 70 53 37 11 34 30 29 35 44 58 48 3 8 16 0 333 330 331 333 326 319 316 323 324 318 318 307 295 283 283 285 283 284 285 284
195 264 150 62 54 65 91 83 74 66 72 65 56 55 50 59 49 41 37 36 35 31 19 11 358 351 350 350 350 343 336 331 329 324 319 321 316 303 287 281 278 278 279 278
147 119 89 105 97 94 104 95 87 75 69 58 54 53 43 52 36 25 17 17 15 10 7 1 356 353 351 349 346 345 343 337 330 331 330 327 319 321 318 300 288 282 275 270
195 157 141 170 110 115 107 98 84 72 60 54 46 40 43 42 23 16 19 20 13 5 357 354 351 349 348 344 341 340 339 338 333 330 326 322 321 319 318 310 318 305 296 283
175 201 163 148 146 125 106 94 74 59 47 37 34 34 21 20 23 29 23 16 10 4 1 356 350 348 348 346 345 346 345 345 344 340 338 338 330 322 316 311 309 302 304 302
142 143 142 143 120 99 74 54 40 40 31 37 33 28 24 21 24 22 16 10 6 5 1 359 356 355 353 354 355 357 358 357 352 351 350 346 345 343 337 332 327 321 310 298
143 127 133 119 104 80 54 39 33 34 34 30 28 22 16 15 15 18 14 11 8 7 8 5 360 356 360 357 356 356 354 352 354 354 353 351 349 346 344 340 334 325 317 313
131 119 113 104 91 67 52 39 31 28 24 22 17 6 1 1 18 16 11 10 10 14 12 9 355 349 346 351 356 355 351 346 345 348 347 347 345 345 346 345 346 342 333 325
105 88 66 62 69 52 46 38 24 16 16 10 3 2 358 3 8 4 6 5 5 5 6 2 355 350 343 338 336 339 341 344 343 342 344 342 342 337 333 331 329 334 333 330
93 67 64 59 47 41 37 26 47 24 17 4 3 357 11 348 351 347 347 351 351 350 352 354 351 343 339 341 337 334 332 335 341 343 344 343 341 334 325 320 319 319 322 320
70 86 76 48 50 43 38 27 26 4 4 11 18 6 327 310 324 323 325 323 335 334 331 338 344 341 329 333 333 334 333 331 335 338 339 340 341 337 326 321 318 318 316 311
88 74 73 57 32 22 21 7 355 343 343 355 2 358 345 336 325 303 317 321 322 324 320 325 333 338 331 326 327 326 333 331 330 333 333 335 338 336 330 327 319 318 316 313
117 120 72 34 24 18 10 358 0 352 339 327 337 341 340 342 327 324 313 319 317 316 316 315 323 331 326 324 325 324 327 332 333 332 332 332 335 334 332 326 322 319 318 316
115 76 15 16 23 0 343 340 323 335 337 332 309 324 331 333 329 325 321 321 321 319 314 309 318 326 323 322 323 325 327 329 331 332 331 332 333 334 335 331 326 328 333 324
94 320 330 346 339 338 337 333 312 319 324 324 323 319 324 324 320 322 320 317 315 317 317 312 318 324 325 324 324 326 329 328 328 328 328 328 331 333 334 336 332 344 342 334
179 291 308 308 307 319 324 326 320 312 321 323 324 322 325 321 316 318 316 314 314 318 317 319 321 324 326 326 326 328 328 327 328 328 327 325 327 332 334 336 344 348 354 352
295 297 303 300 285 303 313 320 315 323 326 326 321 321 324 322 319 321 322 320 321 321 323 323 325 327 328 329 329 329 329 330 331 330 328 328 325 329 334 336 345 347 354 3